CAPE
107 20 234 320 513 951 1006 1083 1253 1147 1036 1254 1338 1296 1465 1599 1830 2376 2781 3014 3009 2895 2813 2818 2828 2852 2742 2618 2572 2671 2818 2923 2941 2871 2566 2560 2457 2383 2234 1865 2165 1905 1945 2063 1832 1792 1663 1388 1548 1355 1337 1472 1346 843 0 1 4 463 363 138 417 258 381
108 50 248 526 733 1014 1156 1188 1290 1287 1162 1184 1404 1385 1479 1614 1767 2226 2679 3004 3070 3001 2980 2935 2944 2886 2894 2861 2775 2788 2848 2932 2946 2875 2722 2662 2495 2394 2317 1978 2066 2039 1921 1906 1927 1864 1590 1495 1560 1397 1306 1565 1183 814 81 33 17 269 365 290 471 268 266
117 169 284 671 952 1016 1228 1274 1306 1328 1292 1267 1466 1500 1539 1650 1767 2062 2487 2923 3102 3093 3098 3061 3024 2951 2925 3017 2982 2954 2902 2946 2937 2881 2876 2807 2712 2506 2459 2288 2066 2165 2088 1858 1955 1736 1867 1581 1613 1438 1228 1465 890 449 203 242 134 264 274 342 551 320 190
302 353 331 331 808 1032 1199 1282 1313 1332 1331 1341 1490 1613 1592 1684 1760 1997 2394 2798 3070 3146 3258 3178 3108 3030 2947 3019 3095 3092 3017 2935 2939 2859 2888 2949 2868 2731 2408 2676 2232 2182 2156 2053 2005 1824 1749 1913 1640 1470 1524 1130 695 436 173 360 318 428 267 202 210 468 292
486 564 535 404 369 778 1051 1225 1263 1257 1338 1511 1564 1667 1693 1725 1760 1884 2309 2815 3003 3184 3322 3338 3191 3089 3001 3019 3147 3213 3111 2968 2929 2825 2829 2890 2960 2809 2631 2598 2462 2257 2185 2174 2048 2047 1647 1836 1621 1391 1167 953 765 609 475 362 398 480 465 272 183 260 391
582 673 670 646 598 579 810 1019 1250 1316 1295 1424 1670 1746 1745 1771 1817 1907 2166 2751 3065 3173 3336 3434 3314 3148 3076 3046 3141 3253 3192 3007 2918 2863 2770 2794 2924 2810 2799 2597 2476 2378 2240 2172 2188 2015 1790 1460 1550 1210 1072 972 883 722 576 283 383 428 568 384 205 344 187
508 655 708 692 653 593 673 890 1165 1400 1336 1482 1696 1790 1823 1783 1858 1974 2151 2538 3018 3198 3336 3491 3446 3236 3133 3108 3120 3177 3204 3078 2939 2900 2765 2728 2796 2804 2737 2693 2548 2364 2223 2168 2248 1976 1926 1570 1299 1330 1162 1019 899 737 482 241 227 422 475 577 245 244 292
292 374 537 528 479 275 558 1109 1319 1444 1481 1690 1994 2011 1926 1865 1854 1953 2141 2348 2840 3191 3326 3478 3526 3358 3176 3140 3122 3089 3160 3102 3000 2955 2810 2693 2694 2734 2676 2656 2641 2395 2282 2114 2194 1994 1849 1659 1366 1241 1067 929 783 605 407 314 276 300 313 619 446 271 354
326 351 360 422 456 357 657 1129 1452 1637 1729 1796 2009 2111 2066 1954 1919 1937 2088 2265 2586 3019 3306 3431 3546 3472 3256 3145 3122 3089 3120 3149 3110 3055 2912 2745 2639 2666 2648 2644 2611 2522 2300 2300 2058 2006 1788 1648 1482 1254 997 842 666 530 493 416 412 390 360 458 576 390 378
322 364 368 524 498 620 962 1228 1370 1567 1869 1959 2056 2125 2070 2032 1999 1974 2024 2183 2397 2745 3141 3368 3528 3570 3395 3166 3109 3095 3141 3190 3209 3150 3100 2867 2698 2664 2690 2663 2630 2599 2416 2410 2248 2061 1869 1706 1542 1401 1173 896 683 594 566 491 442 475 480 449 531 558 489
383 366 519 626 645 697 976 1320 1382 1456 1997 2139 2074 2138 2131 2106 2096 1952 1898 2015 2248 2480 2895 3230 3445 3648 3603 3367 3157 3088 3138 3237 3248 3250 3199 3074 2867 2741 2726 2720 2717 2681 2552 2447 2423 2279 2061 1865 1684 1514 1316 1088 832 702 604 552 477 489 538 526 500 545 540
539 436 641 726 704 702 884 1174 1371 1483 1928 2315 2340 2335 2271 2137 2113 2040 1992 1968 1921 2311 2614 3066 3367 3682 3770 3638 3344 3170 3156 3261 3302 3289 3248 3168 3041 2936 2783 2749 2780 2783 2733 2564 2472 2436 2297 2082 1876 1675 1465 1243 1020 822 704 609 539 494 556 581 547 527 538
623 692 698 676 751 908 1057 1393 1542 1841 2156 2461 2553 2524 2487 2342 2302 2275 2262 2220 2124 2195 2555 3002 3378 3683 3892 3796 3542 3286 3211 3261 3343 3334 3283 3193 3067 2969 2902 2750 2756 2874 2859 2787 2610 2485 2394 2245 2062 1865 1657 1445 1231 1003 796 677 547 466 533 595 594 514 410
986 800 819 730 774 947 1210 1670 1871 1932 2148 2474 2730 2759 2777 2657 2518 2497 2468 2424 2337 2167 2605 3058 3400 3708 3894 3893 3686 3416 3310 3273 3342 3376 3328 3228 3076 2912 2873 2789 2653 2832 2978 2932 2812 2626 2490 2346 2163 2001 1806 1634 1432 1235 1008 764 601 479 439 520 434 576 645
948 883 802 738 716 950 1210 1374 1606 2111 2270 2399 2607 2879 3018 2913 2711 2635 2612 2560 2478 2309 2632 3047 3387 3616 3849 3889 3715 3467 3364 3332 3366 3454 3449 3320 3144 2965 2840 2791 2697 2728 3015 3068 2977 2792 2615 2481 2345 2188 2008 1833 1664 1477 1307 1138 964 789 628 596 700 769 660
1048 950 857 642 888 1219 1381 1385 1432 1575 1722 2071 2329 2479 3009 3115 2952 2787 2728 2653 2573 2443 2509 2945 3291 3452 3645 3774 3658 3435 3352 3335 3384 3486 3548 3520 3373 3202 3070 2944 2821 2816 3113 3234 3134 2996 2816 2648 2531 2399 2253 2118 1981 1855 1710 1543 1346 1248 1190 1160 1189 1217 1148
1794 1667 1977 1972 1220 1526 1534 1462 1470 1800 2351 2655 2830 2832 2967 3208 3178 2984 2805 2721 2630 2519 2452 2849 3186 3296 3434 3592 3560 3413 3369 3405 3418 3467 3531 3594 3556 3395 3262 3175 3029 2936 3123 3383 3362 3211 3037 2878 2777 2667 2559 2460 2338 2190 2017 1881 1821 1704 1614 1608 1564 1445 1250
2569 2394 2750 2719 2082 1972 2193 2837 2673 2822 3263 3419 3252 3137 3210 3373 3336 3205 3092 2850 2730 2616 2477 2820 3070 3171 3286 3547 3619 3579 3568 3546 3536 3501 3506 3585 3648 3555 3378 3283 3241 3158 3208 3388 3484 3460 3342 3165 3014 2906 2839 2730 2626 2508 2434 2346 2212 2111 1999 1894 1707 1530 1276
2809 2729 2824 2803 2489 2295 2646 3565 3768 3472 3648 3798 3653 3443 3387 3514 3496 3396 3220 3096 2947 2767 2613 2740 2985 3057 3175 3565 3798 3863 3836 3774 3702 3624 3566 3582 3691 3715 3581 3454 3497 3540 3551 3576 3503 3465 3434 3375 3293 3187 3037 2909 2879 2813 2705 2577 2437 2310 2193 2012 1809 1673 1475
694 2322 2514 2666 2507 2560 2934 3836 4311 4200 3944 3895 3818 3583 3515 3563 3617 3486 3349 3222 3075 2927 2778 2642 2880 2976 3110 3557 3886 4026 4081 4021 3935 3857 3747 3703 3765 3927 3949 3776 3738 3894 3809 3768 3695 3570 3504 3460 3384 3294 3191 3101 3013 2898 2778 2706 2562 2408 2266 2026 1888 1668 1462
535 400 438 2496 2704 2590 2599 3007 3724 4188 4222 4082 3841 3644 3452 3547 3631 3585 3419 3302 3184 3026 2903 2747 2831 2890 3070 3536 3919 4150 4242 4242 4195 4166 4076 4002 4052 4240 4281 4127 4043 4130 4042 3870 3824 3725 3606 3503 3405 3325 3223 3119 2979 2865 2814 2696 2582 2440 2254 1968 1632 1456 1338
28 211 1183 1525 2618 2680 2503 2497 3021 3620 3936 4014 3976 3694 3517 3557 3636 3659 3535 3364 3241 3105 2952 2800 2967 2937 3073 3535 3989 4287 4416 4464 4472 4524 4469 4358 4412 4532 4519 4395 4266 4227 4116 3940 3810 3715 3587 3448 3275 3272 3181 3072 2991 2876 2796 2671 2510 2336 2177 1967 1765 1722 1381
0 0 0 751 2019 2372 2480 2508 2715 3310 3691 3903 3898 3833 3747 3684 3732 3789 3681 3618 3612 3199 3006 3324 3302 3140 3173 3597 4127 4489 4658 4698 4787 4802 4757 4638 4576 4606 4616 4529 4396 4258 4116 3985 3870 3762 3640 3495 3337 3283 3235 3150 3038 2924 2801 2684 2458 2216 2050 1924 1928 1681 1268
0 0 0 260 1987 2480 3065 3222 3151 3360 3591 3766 3892 3960 3898 3854 3890 3902 3810 3766 3841 3580 3106 3847 3774 3459 3411 3800 4355 4760 4918 4963 4973 4919 4882 4763 4658 4574 4563 4528 4414 4300 4178 4046 3932 3830 3698 3459 3197 3219 3176 3128 3026 2909 2830 2710 2513 2296 2151 1987 1809 1539 1392
0 0 0 0 702 2404 2938 3112 3299 3393 3724 3832 3979 4013 3983 3974 3995 4002 3912 3864 3966 3812 3602 4024 4135 3862 3776 4115 4707 5041 5134 5118 5048 4949 4890 4807 4682 4555 4456 4360 4288 4210 4080 3940 3809 3688 3491 3240 3124 3115 3083 3021 2892 2734 2684 2627 2533 2312 2083 1912 1679 1527 1403
389 447 560 6 0 246 2250 2979 2766 2875 3592 4033 4044 4088 4068 4042 3989 3993 3976 3956 4042 3929 3824 4095 4300 4194 4126 4535 5055 5217 5201 5144 5044 4951 4837 4708 4612 4470 4346 4204 4085 3947 3863 3765 3699 3585 3349 3101 2926 2826 2777 2732 2687 2613 2569 2481 2382 2132 1902 1756 1626 1487 1328
1451 822 2339 2805 1457 492 3 2328 3111 3480 3812 4252 4187 4120 4098 4045 3958 3947 3984 4057 4102 4026 3978 4198 4472 4471 4560 5019 5217 5241 5165 5118 5006 4864 4700 4529 4424 4282 4160 4021 3887 3791 3704 3608 3462 3239 2886 2681 2512 2447 2468 2462 2437 2374 2350 2262 2104 1925 1767 1509 1372 1194 1104
3330 3549 4529 4718 4544 4505 3866 881 1822 3557 4109 4476 4315 4148 4136 4099 4000 3946 4028 4139 4191 4131 4114 4522 4818 4852 5053 5226 5222 5157 5094 5020 4920 4744 4510 4330 4214 4074 3994 3873 3737 3601 3471 3344 3109 2795 2710 2601 2392 2254 2224 2124 2073 2003 1936 1749 1449 1366 1355 1273 1083 969 935
2728 2735 3325 3173 3298 3445 3756 4660 3461 3647 4471 4623 4483 4269 4288 4240 4137 4088 4228 4374 4372 4304 4677 5136 5185 5213 5252 5210 5108 5046 4984 4858 4707 4489 4296 4166 3990 3869 3733 3477 3239 3090 3036 2936 2829 2726 2638 2486 2242 2054 1913 1664 1498 1485 1237 993 1021 1178 1195 997 850 718 701
2896 2605 2898 3101 3162 2899 3198 3876 4414 4812 4744 4868 4714 4609 4571 4461 4383 4492 4614 4702 4551 4879 5281 5362 5312 5258 5200 5090 5005 4937 4854 4704 4540 4290 4090 3934 3741 3434 3041 2896 2829 2778 2727 2673 2562 2432 2264 2015 1833 1698 1464 1302 1147 1016 842 825 890 881 814 693 558 529 531
3435 3070 2724 2862 2821 2865 2599 2751 3249 4344 3806 4481 5037 5022 4891 4821 4692 4781 4860 4901 4989 5268 5409 5372 5225 5181 5137 5040 4952 4854 4659 4440 4274 4110 3881 3672 3086 2806 2733 2618 2482 2348 2236 2152 2090 2027 1869 1732 1570 1392 1175 993 839 891 1009 815 601 591 508 473 495 467 412
3654 3311 3193 3047 2688 2659 2602 2652 2700 2781 3156 3544 5130 5140 5037 4964 4822 4916 5067 5120 5174 5288 5353 5278 5164 5061 5040 4900 4744 4524 4291 4109 3948 3764 3501 3054 2931 2751 2669 2539 2254 2115 2010 1932 1824 1631 1437 1265 1136 959 846 734 756 909 902 760 697 540 501 526 486 412 236
2588 3101 2806 2804 2619 2641 2882 2515 2359 2239 2990 3979 4406 5182 5316 5149 4906 4997 5084 5092 5114 5216 5242 5171 5075 4922 4758 4516 4314 4166 4019 3866 3727 3394 3143 3027 2854 2657 2384 2083 2022 1964 1784 1544 1186 921 900 860 826 705 603 923 1033 958 870 780 648 620 589 517 516 510 0
2009 2035 2009 2098 2326 2608 2708 2534 2551 3013 3296 3480 4098 4921 5127 4881 4692 4522 4950 5049 4988 5038 5071 4964 4734 4524 4289 4230 4053 3922 3803 3620 3272 3044 2886 2608 2522 2273 2138 2029 1885 1674 1445 1130 954 897 926 869 746 730 856 1173 1136 1005 922 833 760 653 721 678 596 489 0
2138 2198 2103 1998 2238 2423 2636 2249 3098 3399 3220 3188 3578 4195 4399 4246 4026 4062 4273 4523 4650 4609 4585 4507 4016 4027 3836 3755 3542 3269 3186 3082 2941 2717 2505 2332 2237 2057 1927 1756 1576 1348 1114 816 890 1034 1040 1012 917 941 1045 1142 1075 993 893 859 779 808 753 696 559 557 23
2092 1973 2202 2220 2258 2559 2292 2328 3118 3069 2846 3187 3481 3534 3589 3596 3537 3345 3857 3958 3847 3909 3501 3795 3675 3265 3143 3162 3166 2977 2882 2713 2525 2322 2267 2164 2084 1910 1665 1334 1179 1066 919 921 1060 1161 1192 1262 1252 1211 1121 1072 1040 967 818 854 907 715 737 783 700 433 231
1303 1497 1863 2169 2230 2507 2236 2313 2854 3062 3270 3211 2873 2892 2853 3215 3334 2936 2895 2934 3130 3233 3408 3058 2523 2400 2622 2638 2561 2348 2154 2111 2136 2121 2068 1927 1782 1612 1316 1177 1083 1055 947 1028 1139 1230 1238 1201 1205 1124 1074 1024 1008 975 980 854 826 782 678 714 744 784 786
1100 1105 1140 1143 1460 1806 1752 1740 2122 1917 1974 2006 2114 1983 2090 2064 2077 1695 2053 1734 1667 1660 1975 2249 1873 1706 1818 1866 1865 1805 1732 1725 1702 1664 1630 1507 1387 1277 1104 1114 1138 1132 1048 1039 1096 1168 1173 1178 1130 1065 969 1056 1064 1037 884 908 852 815 740 592 375 0 0
Wind_Speed
18 nan 17 16 16 15 15 15 16 16 16 16 19 21 22 21 21 20 19 20 21 20 18 17 16 16 16 14 14 14 14 15 16 17 17 16 17 17 17 17 18 18 18 18 17 19 20 22 23 22 22 23 25 26 nan nan nan 27 28 29 30 31 32
17 nan 17 18 16 15 14 13 14 15 15 16 18 20 19 19 19 19 18 19 20 20 19 18 17 16 17 17 17 16 16 16 17 17 18 17 17 17 17 18 19 19 17 17 18 18 20 22 24 25 24 25 28 28 nan nan nan 28 29 31 33 34 33
16 17 19 17 18 17 14 12 13 15 16 17 17 17 17 17 18 18 18 17 18 18 17 17 16 16 17 18 18 18 18 18 18 19 19 19 19 18 18 18 18 18 17 17 18 18 19 21 23 26 27 28 29 29 30 30 30 30 29 31 34 36 35
18 19 20 17 16 16 15 12 13 14 17 18 16 16 15 16 16 16 16 16 17 16 16 15 15 15 16 18 18 19 19 19 19 20 20 21 20 19 18 18 17 17 16 17 18 19 19 21 24 25 28 28 29 29 29 31 31 31 31 32 33 35 36
20 20 20 15 12 12 11 12 14 17 19 19 19 18 17 17 17 15 13 14 15 15 15 15 14 14 15 16 16 17 18 19 20 20 21 21 20 19 18 18 17 16 15 16 18 19 20 21 24 25 26 27 28 28 29 30 32 33 34 35 34 34 35
18 16 15 11 9 10 8 10 14 18 20 21 23 22 21 20 18 16 13 13 12 12 12 13 13 13 13 13 14 14 16 16 18 19 19 19 18 17 16 15 14 14 14 16 17 19 22 23 25 25 26 26 28 29 30 32 33 35 35 36 36 36 35
22 20 16 10 8 9 7 6 10 16 20 22 24 26 26 23 20 16 13 11 11 13 13 13 13 13 12 12 12 13 14 14 15 16 16 16 15 14 13 12 11 12 13 15 17 19 21 24 26 27 28 28 29 32 33 34 35 35 35 36 37 37 37
34 31 21 10 7 8 9 9 12 15 19 24 27 28 29 25 21 18 14 11 10 10 10 13 13 12 12 12 12 12 12 12 11 12 12 12 11 10 9 9 9 11 13 15 17 19 21 24 25 27 29 30 32 33 35 36 37 38 38 39 40 39 38
40 36 25 14 9 11 14 14 16 18 20 25 28 28 29 26 22 20 16 13 10 10 10 12 12 11 11 12 12 12 12 12 10 10 10 10 8 8 9 9 9 11 13 15 17 19 22 24 25 27 29 31 32 33 35 37 40 42 43 43 44 44 42
34 30 28 24 21 19 17 17 20 22 19 21 23 23 24 23 23 21 18 15 13 11 12 11 10 11 11 11 12 12 12 12 10 10 9 9 7 9 10 10 9 10 12 14 17 19 21 24 26 27 30 31 32 33 35 39 42 44 46 47 47 47 46
33 29 30 32 25 20 21 22 23 21 19 20 21 21 19 21 23 22 18 16 14 13 13 11 10 11 12 11 11 11 11 11 10 9 10 9 8 10 10 11 11 10 12 14 16 19 21 22 25 27 29 30 32 34 36 40 43 45 47 47 46 46 45
29 27 30 27 22 23 23 24 24 23 21 20 21 23 21 20 21 20 19 16 14 15 14 12 10 11 12 11 11 10 11 10 10 10 10 10 9 10 10 10 11 12 12 15 17 19 20 22 23 24 27 28 30 34 37 39 41 45 47 48 47 45 43
25 26 25 22 22 22 22 24 26 27 27 25 23 24 24 22 22 22 21 18 16 16 16 14 12 11 12 13 12 10 10 10 10 9 9 9 9 9 9 9 11 13 15 17 19 20 20 21 22 23 25 28 30 33 36 38 41 44 46 47 47 46 43
23 25 22 20 19 21 23 23 27 30 31 29 26 26 27 24 24 24 23 21 19 17 16 15 13 12 13 14 13 12 11 10 9 9 9 9 8 8 8 9 11 13 15 18 19 20 20 21 23 24 26 28 31 35 38 40 41 43 46 47 47 46 44
27 24 23 22 22 25 26 27 29 31 33 32 29 27 27 26 25 25 25 25 22 19 17 17 16 13 13 14 14 14 12 10 9 9 9 8 8 8 9 10 11 12 14 16 18 18 21 23 25 27 28 30 34 37 40 41 42 43 47 48 47 46 43
30 24 24 23 23 26 30 32 33 33 33 33 31 26 25 25 25 26 28 27 26 22 19 19 16 14 14 15 16 15 14 12 11 9 8 8 8 9 10 11 12 13 13 15 18 20 23 25 28 30 32 34 36 38 40 41 41 46 53 51 49 47 43
33 32 30 30 32 35 37 36 35 34 31 31 31 29 26 25 26 27 29 29 29 27 24 20 17 15 14 16 17 17 16 13 12 9 7 7 9 10 11 12 13 14 15 17 20 24 26 28 31 32 34 36 37 39 40 41 43 53 56 56 55 49 43
35 36 37 37 35 37 38 37 38 37 32 29 31 32 30 28 28 29 29 30 31 29 27 23 19 17 15 16 17 19 18 14 13 9 6 7 10 12 13 14 15 16 18 21 24 26 28 30 32 34 35 36 39 41 41 42 47 55 57 57 56 51 43
35 36 38 38 38 35 36 39 40 39 36 33 33 35 33 31 32 30 29 30 31 31 30 27 22 18 16 17 18 19 18 16 13 10 8 8 11 14 16 16 17 19 21 24 26 28 30 32 34 35 37 39 41 42 43 43 50 56 57 59 57 54 46
34 36 36 37 38 40 40 42 43 42 42 41 38 37 35 35 33 31 31 32 34 34 31 30 26 22 18 18 18 19 19 17 13 10 10 11 14 16 17 18 19 21 23 26 28 31 32 34 36 38 40 41 42 43 44 45 51 57 58 58 58 55 47
33 35 38 38 37 37 38 38 41 42 41 38 36 34 37 36 34 35 36 36 36 34 31 30 30 26 22 20 19 18 18 17 15 13 13 15 17 18 18 20 21 24 26 28 30 32 34 36 38 40 42 43 44 45 46 46 55 58 59 59 59 56 49
nan 36 35 36 37 35 33 34 37 38 35 33 31 33 36 36 37 40 39 37 36 35 32 31 31 28 25 22 20 19 17 18 17 17 17 19 20 20 22 23 25 27 28 30 32 34 36 37 40 42 43 44 46 47 48 48 57 58 58 59 59 57 48
nan nan nan 36 36 35 33 35 37 34 34 34 33 35 36 38 40 42 42 38 36 36 34 33 31 30 28 24 21 20 19 18 19 20 20 21 22 23 26 27 28 30 31 34 36 38 39 40 41 43 46 46 48 50 49 49 54 56 57 60 62 55 46
nan nan nan 40 39 40 42 43 42 40 38 36 35 34 37 41 43 43 42 38 37 37 36 34 32 32 31 26 24 24 22 21 22 22 22 23 24 27 29 30 31 33 34 38 40 41 42 44 46 46 47 48 49 51 52 51 53 56 56 60 60 55 49
nan nan nan nan 42 41 42 44 44 44 42 39 34 33 36 40 42 43 40 38 37 36 36 34 34 34 34 31 28 28 27 25 24 25 26 27 29 31 34 34 34 35 37 40 43 44 46 48 49 49 49 50 51 53 54 53 52 53 56 58 58 53 48
45 52 57 nan nan 47 44 45 48 50 49 42 33 32 34 35 37 36 35 36 38 37 34 34 35 37 38 37 34 32 31 29 28 28 29 31 34 36 37 37 38 39 41 42 45 47 49 51 53 53 52 54 56 55 54 54 52 53 57 58 57 56 49
37 37 44 56 61 59 nan 49 48 54 55 50 41 38 37 37 37 36 37 40 43 40 36 37 40 43 44 41 37 36 34 32 31 32 32 34 38 40 40 41 43 44 45 46 48 50 52 55 55 55 56 59 61 57 53 52 52 52 57 56 56 54 51
45 43 41 45 59 71 69 60 54 53 57 56 52 50 51 49 45 44 46 48 46 42 43 46 45 46 48 43 39 38 37 35 34 34 35 38 41 42 43 45 48 48 49 49 51 53 55 57 58 57 59 62 59 51 47 51 55 54 55 57 55 53 51
55 52 44 42 43 57 73 75 65 57 56 59 58 57 56 55 51 48 48 47 46 48 51 51 49 48 48 45 41 40 39 36 36 36 37 41 43 45 47 48 50 50 51 52 53 55 58 58 56 55 57 58 52 44 45 49 53 58 57 55 54 52 50
59 55 54 52 50 54 68 78 80 70 62 65 65 63 60 57 57 55 49 46 52 54 53 52 51 50 49 46 43 43 41 38 38 40 42 45 46 47 49 50 51 51 50 51 53 56 57 54 52 53 55 55 50 47 48 51 52 55 59 55 54 53 52
62 58 55 53 50 49 57 71 87 93 80 71 70 68 62 56 54 54 51 49 53 55 53 53 53 52 50 48 46 45 42 40 41 44 47 47 48 49 50 52 52 51 50 54 55 56 55 51 50 52 54 55 54 53 52 53 53 53 55 57 54 53 52
68 67 64 61 59 56 60 63 73 78 70 64 67 68 63 57 51 51 51 51 55 55 53 54 56 54 52 50 48 46 44 44 47 49 50 50 50 51 51 52 51 52 53 55 56 56 54 52 51 51 53 56 57 57 57 56 54 53 51 49 50 49 49
67 69 69 65 61 57 59 63 67 72 62 58 59 61 62 61 58 57 56 55 56 56 55 55 58 58 55 52 49 47 46 47 48 50 51 52 52 51 52 52 53 54 55 55 55 55 53 53 53 53 54 58 60 61 62 58 53 50 48 46 47 47 nan
61 64 68 68 65 61 58 62 68 73 70 59 51 58 67 68 63 59 59 59 57 56 55 56 58 58 54 52 49 48 48 49 52 52 50 50 51 52 52 53 53 54 55 55 55 54 53 53 53 55 58 61 62 64 63 55 47 46 47 47 48 49 nan
57 58 61 65 64 64 59 58 63 65 66 56 45 46 61 69 66 55 53 57 59 55 53 54 57 55 52 51 50 50 48 48 48 49 51 53 55 52 50 52 54 56 55 52 53 54 56 55 56 58 60 63 64 65 59 50 43 42 47 49 51 51 nan
55 55 56 57 58 61 61 59 61 58 58 55 53 50 57 69 72 63 53 55 61 62 60 59 57 54 50 49 48 46 47 46 47 50 52 54 54 55 55 57 57 54 56 55 56 54 51 56 58 60 64 68 64 58 53 45 43 49 54 54 54 52 52
53 52 53 53 56 57 57 56 57 59 59 59 55 52 53 62 69 65 55 51 53 58 56 53 49 45 45 46 44 44 46 47 49 51 52 53 54 56 58 58 59 61 62 59 54 54 58 61 66 69 70 69 58 45 41 38 45 55 53 53 52 53 52
52 48 46 48 50 48 48 55 60 63 63 59 53 50 51 56 61 62 57 49 45 44 41 39 37 36 41 44 44 46 47 48 50 52 53 53 55 56 57 59 60 60 62 60 54 54 56 58 60 63 68 64 55 46 39 40 44 53 54 53 53 nan nan
Wind_Direction
289 nan 274 280 284 289 298 303 305 309 315 315 316 315 309 302 298 291 289 291 297 296 299 299 300 294 299 293 293 290 292 294 293 294 294 292 289 297 307 313 312 315 314 311 311 313 315 320 320 325 325 324 325 330 nan nan nan 329 331 335 335 337 337
288 nan 275 281 291 295 301 299 298 299 301 307 309 313 307 308 302 299 296 295 298 300 300 301 299 295 294 290 286 289 290 292 291 288 287 283 285 291 305 313 313 315 315 309 307 309 315 319 319 325 325 323 327 330 nan nan nan 332 333 335 335 338 337
294 280 278 279 284 289 294 284 286 293 294 293 300 305 312 312 308 308 302 301 301 299 298 301 299 293 288 288 288 291 290 286 286 289 289 288 293 298 300 308 310 312 315 311 308 311 315 319 320 325 324 325 328 329 329 329 332 333 335 334 334 337 338
286 278 278 281 287 295 303 295 289 283 283 292 300 307 306 307 303 304 307 308 307 304 307 304 298 295 289 289 289 288 288 286 286 285 286 286 292 296 298 301 306 308 310 314 311 313 312 313 323 325 325 325 329 329 329 331 332 334 336 335 335 335 336
294 289 277 276 286 295 303 298 288 285 290 295 298 296 298 296 294 296 299 306 314 320 320 316 306 301 293 294 284 283 289 289 285 284 285 285 290 294 301 305 308 314 312 310 312 312 316 311 321 325 327 327 328 329 330 331 334 334 335 335 334 333 331
290 290 277 282 294 292 308 315 304 301 297 298 298 296 292 293 291 303 304 306 314 318 316 318 319 312 309 304 295 291 290 293 291 289 289 290 295 299 302 306 312 315 312 314 310 313 317 318 320 326 328 330 329 331 332 333 334 334 332 333 333 330 328
299 299 288 288 290 287 295 314 307 304 301 298 294 291 292 296 303 301 297 309 319 325 331 334 331 324 317 307 307 305 308 304 298 298 294 299 304 305 304 305 314 319 314 305 313 314 319 323 323 326 329 331 331 333 333 333 333 333 332 332 333 330 328
303 304 304 288 279 296 301 294 295 299 296 289 290 298 305 303 298 302 310 314 319 326 336 340 336 331 322 316 315 319 317 316 309 307 305 314 314 316 317 318 319 319 312 319 314 317 321 326 325 324 328 330 332 333 334 334 335 336 336 334 333 332 328
303 310 304 292 275 281 293 296 293 294 300 298 297 302 307 301 304 309 308 309 316 330 345 343 338 328 322 323 323 326 318 318 322 327 329 332 327 334 334 333 326 320 320 320 315 317 321 325 326 326 327 329 332 334 335 337 338 339 339 337 334 333 331
295 298 300 281 260 258 273 278 275 276 288 292 282 284 298 303 307 306 306 312 314 334 339 339 334 329 326 328 329 324 318 322 329 340 340 342 338 345 341 334 329 320 320 316 314 319 321 324 325 325 328 331 333 336 338 341 341 341 340 339 336 334 333
297 295 279 273 271 272 271 271 279 285 296 296 280 273 282 291 299 306 308 308 317 319 325 329 329 330 329 330 330 325 325 331 332 342 347 346 337 346 341 335 327 319 323 314 317 320 320 321 322 325 329 335 337 338 340 343 342 342 341 339 337 336 333
290 284 276 273 270 265 270 279 284 286 290 284 270 262 266 278 288 293 295 304 304 304 310 319 324 335 330 324 324 322 329 331 334 343 348 345 336 339 341 335 328 325 321 319 319 318 320 321 322 326 333 337 338 339 339 339 341 341 340 339 337 335 333
262 260 258 254 255 259 267 274 285 288 289 287 275 259 258 268 277 281 286 292 295 297 302 306 317 331 334 327 322 313 323 329 333 333 336 332 330 330 337 339 332 327 325 319 317 317 322 326 329 329 332 334 334 336 336 336 338 338 337 337 336 335 334
268 274 265 250 252 267 272 277 277 275 277 278 271 261 258 263 273 279 283 288 287 288 293 296 310 324 331 327 322 316 320 323 322 320 323 322 324 330 336 333 326 325 320 315 321 324 329 333 334 332 330 331 333 334 334 334 335 336 336 334 334 334 334
270 274 268 257 246 252 255 255 257 264 273 278 273 267 265 267 274 276 280 286 289 288 295 295 301 314 325 327 326 319 311 307 304 304 311 320 324 327 328 327 325 320 317 320 325 326 331 331 331 331 331 330 332 333 333 334 335 334 334 333 332 331 333
254 261 270 266 258 257 256 259 258 260 265 269 273 271 267 272 280 283 285 290 294 293 288 287 298 308 321 330 327 310 301 301 298 303 313 316 320 324 321 318 318 317 319 324 328 328 326 327 328 331 333 333 332 331 331 332 331 333 336 336 332 332 332
254 247 240 238 238 241 244 251 258 260 263 268 271 271 267 270 277 278 280 286 296 299 291 289 295 304 314 326 320 305 297 296 300 302 317 312 308 310 309 310 308 311 314 319 324 325 323 322 326 330 332 332 330 331 331 331 331 334 338 338 336 333 331
246 252 251 248 246 249 251 257 262 262 265 270 271 272 270 267 268 273 280 287 298 301 291 288 292 300 308 314 309 301 300 299 302 304 305 296 300 301 302 298 300 308 312 313 319 321 319 321 324 327 327 327 327 330 332 333 333 335 337 336 336 332 330
249 251 252 254 258 259 264 269 270 275 276 272 270 271 276 275 272 276 282 288 293 291 289 290 292 294 297 301 304 303 300 298 300 300 291 291 290 289 292 299 303 307 309 315 316 314 319 321 319 322 323 324 326 328 331 332 332 334 335 337 335 333 331
231 237 251 261 265 264 260 258 260 265 271 270 270 275 277 276 278 279 281 283 282 288 291 289 289 291 291 293 302 302 296 295 294 290 287 282 282 284 292 300 308 306 305 304 309 315 316 317 317 317 320 322 324 326 327 329 329 332 333 334 335 333 329
237 235 242 247 251 258 262 261 260 264 266 265 265 266 267 270 272 270 270 273 280 286 289 289 289 290 286 290 297 296 290 289 287 284 280 280 280 284 293 300 299 300 302 304 307 310 313 314 312 314 317 319 321 322 324 325 327 330 333 335 333 332 328
nan 232 244 252 262 265 265 259 257 259 262 261 259 258 262 267 266 266 271 276 281 283 285 283 285 288 286 285 289 293 289 285 283 280 277 279 282 287 293 297 300 300 299 299 298 300 303 306 307 310 313 315 317 318 321 321 326 331 332 331 332 330 325
nan nan nan 243 254 257 256 257 257 257 256 256 260 262 261 260 262 264 268 273 275 278 279 279 281 285 288 286 285 286 283 279 280 280 280 283 289 292 292 294 296 296 297 297 297 299 301 303 303 304 307 311 314 316 317 314 321 325 328 330 329 325 323
nan nan nan 232 244 247 250 248 248 249 252 254 254 258 258 257 260 263 266 271 271 272 274 277 279 282 284 281 277 276 275 275 277 279 281 285 290 288 286 287 290 294 296 297 297 298 300 300 299 300 304 308 310 312 311 310 317 324 325 324 325 325 323
nan nan nan nan 240 247 252 258 259 255 253 251 248 248 251 255 259 262 267 271 271 271 273 273 274 277 281 278 272 269 269 270 273 277 281 284 283 282 285 289 292 292 292 294 295 297 298 298 299 299 302 305 306 307 308 308 313 320 320 322 325 326 323
228 221 215 nan nan 238 246 249 253 257 258 256 248 243 245 249 255 262 266 270 272 273 273 272 271 272 272 270 265 262 263 265 271 275 279 280 279 280 284 285 287 290 291 292 293 295 296 296 298 301 303 303 302 303 305 308 309 316 319 323 326 330 326
242 239 230 222 223 227 nan 242 250 258 263 260 253 247 248 253 259 263 264 266 269 273 275 270 264 263 265 265 262 260 262 262 268 275 277 278 279 280 283 285 286 286 288 289 290 293 294 296 299 300 302 302 299 296 299 305 309 312 319 322 325 328 325
235 243 246 242 230 224 224 231 241 251 260 261 260 258 257 259 262 261 259 261 264 266 265 263 261 260 261 262 260 258 260 262 265 271 273 274 277 280 280 280 282 283 286 288 292 295 296 297 300 302 305 307 301 294 297 304 309 308 316 319 322 325 325
228 224 234 246 242 234 231 224 230 243 252 258 262 262 262 265 265 258 256 260 259 254 256 259 259 258 258 258 256 255 257 261 266 267 268 271 275 278 278 279 280 282 286 291 294 296 296 298 302 306 309 312 309 303 302 304 305 310 313 318 320 325 326
231 230 229 233 237 231 227 226 222 225 237 246 249 252 253 259 259 255 253 253 247 247 251 254 255 254 253 251 250 251 254 259 262 263 265 269 272 274 276 278 279 282 287 291 291 292 295 299 304 308 311 313 312 307 304 305 304 310 316 317 322 324 328
236 234 235 233 233 235 238 234 226 220 219 231 244 247 249 247 250 252 254 246 242 245 249 251 252 252 249 248 247 249 252 255 257 260 263 265 270 272 274 277 280 282 286 287 287 290 296 300 303 307 310 310 310 305 303 303 305 307 313 319 322 326 328
234 235 234 234 233 237 240 238 237 230 222 223 230 235 236 238 242 249 250 245 239 239 242 246 248 248 247 245 245 247 250 252 253 256 259 261 264 268 271 277 280 282 283 284 286 290 294 298 302 305 306 306 305 305 303 302 300 302 304 310 318 322 326
236 236 238 236 236 237 241 248 247 244 235 230 224 229 233 233 230 234 239 238 235 235 238 242 245 245 244 244 244 245 248 251 252 255 258 261 264 269 272 275 278 280 281 283 286 289 294 298 301 302 303 303 303 303 302 299 298 301 304 307 311 314 nan
238 240 240 240 239 238 243 244 249 251 250 244 233 230 234 232 226 224 230 234 232 232 237 240 242 244 243 242 241 243 246 248 255 257 259 262 267 271 273 275 278 281 283 285 287 290 292 295 298 300 301 301 301 301 301 300 300 303 308 310 310 309 nan
245 243 243 242 240 239 241 250 252 252 257 257 248 235 240 243 241 235 236 232 228 230 235 238 240 241 241 239 240 242 246 250 253 255 258 259 258 258 263 272 278 277 276 275 278 284 289 293 296 299 299 299 299 299 301 302 306 310 309 311 313 312 nan
248 248 247 246 245 241 244 244 247 246 252 253 249 242 240 240 240 239 239 231 219 220 226 228 230 234 235 237 241 246 249 251 253 256 258 261 263 265 263 258 260 269 279 280 279 283 291 295 296 299 300 300 297 294 300 307 310 308 310 312 313 314 313
247 250 250 248 247 245 244 243 248 252 248 244 241 239 237 234 236 239 242 238 227 226 228 231 225 225 231 239 244 248 251 253 254 255 257 260 263 266 268 267 263 260 261 267 275 283 288 293 298 301 304 305 302 291 285 296 306 311 313 312 313 314 313
249 248 248 253 253 249 248 247 245 245 244 244 246 249 245 235 232 236 243 247 236 226 226 227 230 231 236 241 246 250 251 254 257 259 261 262 265 268 270 271 271 266 262 264 272 278 281 283 286 295 301 303 304 302 298 297 304 313 313 313 312 nan nan